{"data":{"norad_id":51740,"epoch":"2026-05-24T19:20:49.485120Z","epoch_age_seconds":81959,"freshness":"FRESH","line1":"1 51740U 22016AC  26144.80612830 -.00000448  00000+0 -10061-4 0  9992","line2":"2 51740  53.2171 337.4199 0001099  90.6113 269.5005 15.08837777235058","mean_motion":15.08837777,"eccentricity":0.0001099,"inclination_deg":53.2171,"raan_deg":337.4199,"arg_perigee_deg":90.6113,"mean_anomaly_deg":269.5005,"bstar":-1.0061e-5,"rev_number":23505,"period_min":95.437695287769,"perigee_km":538.98990799262,"apogee_km":540.51045959562,"semimajor_km":6917.8871837941,"source":"CELESTRAK","updated_at":"2026-05-25T13:38:16.925011Z"}}